Regional Weather Roundup
Issued by NWS

Home | Current Version | Previous Version | Text Only | Print | Product List | Glossary Off
Versions: 1 2 3 4 5 6 7 8 9 10 11 12 13 14 15 16 17 18 19 20 21 22 23 24 25 26 27 28 29 30 31 32 33 34 35 36 37 38 39 40 41 42 43 44 45 46 47 48 49 50

000
ASUS43 KLOT 041300
RWRIL

ILLINOIS REGIONAL WEATHER ROUNDUP
NATIONAL WEATHER SERVICE CHICAGO/ROMEOVILLE IL
800 AM CDT MON MAY 04 2015

NOTE: "FAIR" INDICATES FEW OR NO CLOUDS BELOW 12,000 FEET WITH NO
SIGNIFICANT WEATHER AND/OR OBSTRUCTIONS TO VISIBILITY.

* THESE STATIONS ARE NOT UNDER NWS QUALITY CONTROL. THEY ALSO MAY NOT
  REPORT WEATHER SUCH AS PRECIPITATION OR FOG.

ILZ001-002-007-009-015-016-024-041400-
NORTHWEST ILLINOIS

CITY           SKY/WX    TMP DP  RH WIND       PRES   REMARKS
MOLINE         NOT AVBL
$$

ILZ003-004-008-010-011-017-018-041400-
NORTH CENTRAL ILLINOIS

CITY           SKY/WX    TMP DP  RH WIND       PRES   REMARKS
ROCKFORD       NOT AVBL
$$

ILZ005-006-012>014-019>023-041400-
NORTHEAST ILLINOIS

CITY           SKY/WX    TMP DP  RH WIND       PRES   REMARKS
CHICAGO-OHARE  CLOUDY    62  55  77 W3        30.02R
CHICAGO-MIDWAY NOT AVBL
AURORA         CLOUDY    62  56  80 SW7       30.04R
WAUKEGAN       NOT AVBL
DUPAGE AIRPORT CLOUDY    62  56  80 W6        30.02R
WHEELING       CLOUDY    63  55  75 W6        30.04R
NORTHERLY ISL    N/A     65  54  67 W5          N/A
$$

LMZ740>746-041400-
SOUTHERN LAKE MICHIGAN

STATION/POSITION SKY/WX   TEMP    WIND        PRES    VSBY  WAVE
                          AIR SEA DIR/SP/G                  HT/PER
                          (F)     (DEG/KT/KT) (MB)    (MI)  (FT/S)
HARRISON CRIB              62     250/  5/  6   N/A
BURNHAM HARBOR             64     210/  4/  8   N/A
CALUMET HARBOR             63     210/  9/ 13   N/A
BURNS HARBOR               63     210/ 18/ 22 1016.6
MICHIGAN CITY              62     200/ 17/ 19   N/A
MICHIGAN CITY 6N           56 49  250/ 14/ 21   N/A           2/ 3
ST. JOSEPH                 54 47  300/  6/  8   N/A           2/ 3
$$

ILZ025>027-034>036-040-047-049-050-058-095>099-041400-
WEST-CENTRAL ILLINOIS

CITY           SKY/WX    TMP DP  RH WIND       PRES   REMARKS
$$

ILZ028>032-037-038-041>044-048-051>054-059>061-041400-
CENTRAL ILLINOIS

CITY           SKY/WX    TMP DP  RH WIND       PRES   REMARKS
BLOOMINGTON    LGT RAIN  61  59  94 CALM      30.10R FOG
PEORIA         NOT AVBL
SPRINGFIELD    LGT RAIN  66  58  75 NW3       30.10S
TAYLORVILLE    NOT AVBL
$$

ILZ033-039-045-046-055>057-062-063-041400-
EAST-CENTRAL ILLINOIS

CITY           SKY/WX    TMP DP  RH WIND       PRES   REMARKS
MATTOON        LGT RAIN  63  52  67 SW8       30.11R
$$

ILZ079-100>102-041400-
SOUTHWEST ILLINOIS

CITY           SKY/WX    TMP DP  RH WIND       PRES   REMARKS
ALTON          CLOUDY    64 N/A N/A S12       30.08R
$$

ILZ064>066-069>071-074>076-080>082-084>086-088>090-092>094-041400-
SOUTH-CENTRAL ILLINOIS

CITY           SKY/WX    TMP DP  RH WIND       PRES   REMARKS
CARBONDALE     CLOUDY    66  53  63 SW8       30.15R
$$

ILZ067-068-072-073-078-083-087-091-041400-
SOUTHEAST ILLINOIS

CITY           SKY/WX    TMP DP  RH WIND       PRES   REMARKS
LAWRENCEVILLE  CLOUDY    66  53  63 SW7       30.14R
$$

ABBREVIATIONS USED IN REMARKS
   TC - TEMPERATURE IN CELSIUS
  WCI - WIND CHILL INDEX
   HX - HEAT INDEX
  VSB - VISIBILITY
$$



USA.gov is the U.S. government's official web portal to all federal, state and local government web resources and services.